[[{"header":{"parameterUnit":"m.s-1","parameterCategory":1,"la1":30.2991,"la2":30.254,"lo1":-89.0895,"lo2":-89.0444,"dy":0.0017,"dx":0.0017,"nx":28,"ny":28,"refTime":"2025-12-22T03:00:00:Z","depth":0,"parameterNumber":2,"parameterNumberName":"U-component_of_WINDS"},"data":[0,0,0,0,0,0,0,0,0,0,0,0,0,0,0,0,0,0,0,0,0,0,0,0,0,0,0,0,0,0,0,0,0,0,0,0,0,0,0,0,0,0,0,0,0,0,0,0,0,0,0,0,0,0,0,0,0,0,-3.8094,-3.8094,0,-3.8126,-3.8126,-3.8127,-3.807,-3.8068,-3.8066,-3.8065,-3.8097,-3.81,-3.8103,0,0,0,0,0,0,0,0,0,0,0,0,0,-3.7983,-3.7985,-3.8094,-3.8094,-3.8094,-3.8126,-3.8126,-3.8127,-3.807,-3.8068,-3.8066,-3.8064,-3.8097,-3.81,-3.8103,0,0,0,0,0,0,0,0,0,0,0,0,0,-3.8025,-3.7986,-3.8093,-3.807,-3.8068,-3.8126,-3.8126,-3.8127,-3.8071,-3.8068,-3.8065,-3.8063,-3.8095,-3.8099,-3.8103,-3.8185,0,0,-3.8115,-3.8117,0,0,0,0,0,0,0,0,-3.8023,-3.8029,-3.8073,-3.8072,-3.807,-3.8091,-3.8099,-3.8146,-3.8072,-3.807,-3.8064,-3.8061,-3.8098,-3.8101,-3.8114,-3.8187,-3.8188,-3.8116,-3.8118,-3.812,-3.8121,0,0,0,0,0,0,0,-3.802,-3.8027,-3.8106,-3.8074,-3.8072,-3.8058,-3.8061,-3.8108,-3.8099,-3.807,-3.8066,-3.807,-3.8096,-3.811,-3.8114,-3.8188,-3.8116,-3.8119,-3.8122,-3.8123,-3.8331,-3.8334,0,0,0,0,0,0,-3.802,-3.8025,-3.8105,-3.8107,-3.8039,-3.8062,-3.8065,-3.8087,-3.8099,-3.8098,-3.8073,-3.8068,-3.8104,-3.8109,-3.8115,-3.8212,-3.812,-3.8124,-3.8126,-3.8328,-3.8332,-3.8335,0,0,0,0,0,0,-3.8018,-3.8027,-3.8104,-3.8065,-3.8074,-3.8067,-3.8092,-3.8089,-3.8103,-3.8101,-3.8099,-3.8088,-3.8102,-3.8109,-3.8168,-3.8212,-3.8125,-3.8129,-3.8325,-3.8329,-3.8334,-3.8406,0,0,0,0,0,0,-3.8015,-3.8027,-3.8058,-3.8066,-3.8076,-3.8157,-3.8095,-3.8092,-3.811,-3.8104,-3.8115,-3.8114,-3.8101,-3.8163,-3.8172,-3.8216,-3.8132,-3.8321,-3.8327,-3.8332,-3.8399,-3.8412,-3.8423,0,0,0,0,0,-3.8011,-3.8076,-3.806,-3.807,-3.8115,-3.8159,-3.8165,-3.8148,-3.8114,-3.8145,-3.8144,-3.8114,-3.8206,-3.8169,-3.8179,-3.8225,-3.8318,-3.8325,-3.8332,-3.8394,-3.841,-3.8423,0,0,0,0,0,0,-3.8072,-3.8077,-3.8058,-3.8129,-3.8144,-3.815,-3.8188,-3.8165,-3.8191,-3.8183,-3.8162,-3.8165,-3.8228,-3.8233,-3.8192,-3.8305,-3.8256,-3.8266,-3.83,-3.8315,-3.8327,-3.8324,-3.8135,0,0,0,0,0,-3.8094,-3.813,-3.8132,-3.8194,-3.8203,-3.8195,-3.8214,-3.8199,-3.8214,-3.8221,-3.8224,-3.824,-3.8272,-3.8294,-3.8324,-3.84,-3.8402,-3.8437,-3.8449,-3.8459,-3.8467,-3.8508,-3.8524,-3.8359,-3.8359,-3.8359,0,0,-3.8139,-3.8146,-3.817,-3.8207,-3.8217,-3.8255,-3.82,-3.8243,-3.8271,-3.8227,-3.8283,-3.8286,-3.8302,-3.8371,-3.8401,-3.8376,-3.8513,-3.8468,-3.8476,-3.8478,-3.8517,-3.8533,-3.8547,-3.8363,-3.8363,-3.8362,0,0,-3.8241,-3.825,-3.8303,-3.8315,-3.8331,-3.8326,-3.8339,-3.8348,-3.8349,-3.8405,-3.8373,-3.8407,-3.8463,-3.8476,-3.849,-3.8599,-3.8573,-3.8609,-3.8672,-3.8712,-3.8725,-3.8737,-3.8776,-3.879,-3.8618,-3.8618,-3.8618,0,-3.8294,-3.835,-3.8332,-3.8377,-3.8395,-3.8358,-3.8411,-3.8424,-3.8449,-3.8462,-3.8435,-3.8505,-3.8514,-3.8585,-3.8612,-3.8624,-3.8638,-3.8607,-3.8725,-3.8736,-3.8747,-3.8783,-3.8798,-3.8622,-3.8622,-3.8621,-3.8621,0,-3.8416,-3.8455,-3.8496,-3.8522,-3.8544,-3.8593,-3.8583,-3.8608,-3.8593,-3.859,-3.8648,-3.8657,-3.8688,-3.8705,-3.869,-3.8774,-3.8759,-3.8729,-3.8678,-3.8767,-3.8801,-3.8815,-3.8629,-3.8627,-3.8626,-3.8625,0,0,-3.8554,-3.8572,-3.8587,-3.8599,-3.8616,-3.8646,-3.8694,-3.8726,-3.8747,-3.8767,-3.8806,-3.8856,-3.8829,-3.8845,-3.8831,-3.8867,-3.8953,-3.8833,-3.8833,-3.8855,-3.9047,-3.9069,-3.9086,-3.8937,-3.8939,-3.8941,-3.9046,0,-3.8655,-3.8738,-3.8724,-3.8804,-3.8841,-3.8808,-3.8849,-3.8865,-3.8864,-3.8895,-3.8895,-3.893,-3.8891,-3.8901,-3.8935,-3.8936,-3.8992,-3.8928,-3.8973,-3.8975,-3.8969,-3.9104,-3.9127,-3.9225,-3.9059,-3.9061,-3.9063,0,-3.8783,-3.8808,-3.8892,-3.8905,-3.8919,-3.8957,-3.8985,-3.9016,-3.9033,-3.903,-3.9049,-3.903,-3.9078,-3.9029,-3.9095,-3.9052,-3.907,-3.9073,-3.9077,-3.9079,-3.9024,-3.9109,-3.9256,-3.927,-3.9084,-3.9082,-3.9081,0,-3.8875,-3.893,-3.8988,-3.8999,-3.9015,-3.9043,-3.9051,-3.9065,-3.9085,-3.911,-3.9123,-3.9153,-3.917,-3.9194,-3.9183,-3.9148,-3.9252,-3.9201,-3.9251,-3.9251,-3.9273,-3.9271,-3.9423,-3.9286,-3.9286,-3.9286,-3.9285,0,-3.8988,-3.9041,-3.903,-3.9065,-3.9124,-3.9108,-3.9166,-3.917,-3.9184,-3.9219,-3.9193,-3.9227,-3.9211,-3.9245,-3.9237,-3.9293,-3.9301,-3.93,-3.9297,-3.9302,-3.9302,-3.9312,-3.9305,-3.929,-3.9289,-3.9288,-3.9287,0,-3.9101,-3.9095,-3.9156,-3.9167,-3.9171,-3.9214,-3.9223,-3.9256,-3.9255,-3.93,-3.931,-3.9307,-3.9345,-3.9338,-3.9379,-3.9374,-3.9445,-3.9434,-3.9439,-3.9436,-3.9486,-3.9481,-3.9649,-3.967,-3.952,-3.9522,-3.9523,0,-3.9172,-3.9212,-3.9228,-3.9251,-3.9261,-3.9297,-3.9318,-3.9305,-3.9327,-3.9351,-3.9382,-3.9418,-3.9445,-3.9508,-3.9509,-3.9542,-3.9531,-3.9588,-3.9535,-3.9539,-3.9531,-3.9528,-3.9532,-3.9597,-3.9599,-3.9601,-3.9602,0,-3.9301,-3.9297,-3.9328,-3.9359,-3.9385,-3.9408,-3.9429,-3.9449,-3.9438,-3.9465,-3.9504,-3.9525,-3.9569,-3.9605,-3.9635,-3.9643,-3.9621,-3.9619,-3.9632,-3.9636,-3.9637,-3.9637,-3.9467,-3.9614,-3.9613,-3.9612,-3.9611,-3.9611,-3.9394,-3.9429,-3.9445,-3.9481,-3.9496,-3.9517,-3.9549,-3.9552,-3.9585,-3.9619,-3.961,-3.9654,-3.9671,-3.971,-3.9722,-3.9756,-3.9735,-3.9754,-3.9759,-3.9763,-3.9769,-3.9633,-3.9762,-3.9762,-3.9761,-3.9761,-3.9761,0,-3.952,-3.953,-3.9564,-3.9595,-3.9623,-3.9601,-3.9624,-3.9649,-3.9689,-3.9707,-3.9735,-3.9781,-3.9816,-3.9822,-3.9855,-3.9882,-3.9873,-3.9891,-3.9888,-3.9891,-3.9786,-3.9772,-3.9898,-3.9898,-3.9898,-3.9898,-3.9898,-3.9898,-3.9589,-3.9646,-3.9645,-3.9709,-3.9719,-3.9762,-3.9777,-3.9797,-3.9811,-3.9863,-3.9893,-3.9896,-3.991,-3.9945,-3.9976,-3.9977,-3.999,-4.0013,-4.001,-3.9912,-3.9898,-3.9885,-3.9871,-4.0016,-4.0016,-4.0111,-4.0112,-4.0112]},{"header":{"parameterUnit":"m.s-1","parameterCategory":1,"la1":30.2991,"la2":30.254,"lo1":-89.0895,"lo2":-89.0444,"dy":0.0017,"dx":0.0017,"nx":28,"ny":28,"refTime":"2025-12-22T03:00:00:Z","depth":0,"parameterNumber":3,"parameterNumberName":"V-component_of_WINDS"},"data":[0,0,0,0,0,0,0,0,0,0,0,0,0,0,0,0,0,0,0,0,0,0,0,0,0,0,0,0,0,0,0,0,0,0,0,0,0,0,0,0,0,0,0,0,0,0,0,0,0,0,0,0,0,0,0,0,0,0,0.7723,0.7724,0,0.7754,0.7755,0.7755,0.7785,0.7786,0.7786,0.7787,0.7815,0.7816,0.7816,0,0,0,0,0,0,0,0,0,0,0,0,0,0.7691,0.7691,0.7723,0.7724,0.7724,0.7754,0.7755,0.7755,0.7785,0.7786,0.7786,0.7787,0.7815,0.7816,0.7816,0,0,0,0,0,0,0,0,0,0,0,0,0,0.7711,0.7691,0.7723,0.7743,0.7745,0.7754,0.7755,0.7755,0.7785,0.7786,0.7786,0.7787,0.7815,0.7816,0.7816,0.7808,0,0,0.7818,0.7818,0,0,0,0,0,0,0,0,0.771,0.7712,0.774,0.7742,0.7744,0.7767,0.7754,0.7773,0.7785,0.777,0.7787,0.7787,0.7799,0.7801,0.7805,0.7809,0.781,0.7818,0.7818,0.7819,0.7819,0,0,0,0,0,0,0,0.7709,0.7711,0.7736,0.774,0.7743,0.775,0.7754,0.7757,0.778,0.7771,0.7774,0.7777,0.78,0.7804,0.7806,0.7811,0.7818,0.7819,0.7819,0.7819,0.7812,0.7812,0,0,0,0,0,0,0.7704,0.771,0.7735,0.7736,0.7728,0.775,0.7754,0.7759,0.778,0.7784,0.7776,0.7778,0.7803,0.7805,0.7807,0.78,0.7819,0.7819,0.782,0.7813,0.7812,0.7811,0,0,0,0,0,0,0.7704,0.7706,0.7733,0.7724,0.7728,0.775,0.7755,0.7759,0.7764,0.7784,0.7788,0.7777,0.7804,0.7806,0.7808,0.7801,0.782,0.782,0.7813,0.7812,0.7812,0.7785,0,0,0,0,0,0,0.7702,0.7706,0.7703,0.7724,0.7728,0.7734,0.7754,0.7759,0.7765,0.7767,0.7786,0.7789,0.7804,0.7807,0.7809,0.7803,0.782,0.7814,0.7813,0.7812,0.7787,0.7783,0.7781,0,0,0,0,0,0.7701,0.7693,0.7702,0.7705,0.7725,0.7733,0.7736,0.7754,0.7764,0.7761,0.7775,0.7789,0.7802,0.7807,0.7809,0.7803,0.7814,0.7813,0.7812,0.7788,0.7784,0.7781,0,0,0,0,0,0,0.7668,0.7696,0.7707,0.7705,0.7717,0.7739,0.7735,0.7749,0.7758,0.776,0.7781,0.7785,0.7785,0.7794,0.7799,0.7797,0.781,0.7809,0.7791,0.7788,0.7785,0.7783,0.7821,0,0,0,0,0,0.7661,0.7667,0.769,0.7686,0.7692,0.7713,0.7717,0.773,0.7743,0.7748,0.7762,0.7773,0.7781,0.7785,0.7792,0.7788,0.7794,0.7785,0.7782,0.778,0.7779,0.778,0.7777,0.7807,0.7807,0.7807,0,0,0.7646,0.7662,0.7663,0.768,0.7691,0.7696,0.7716,0.772,0.7725,0.7748,0.7752,0.7763,0.7777,0.7777,0.7777,0.7784,0.7772,0.7778,0.7776,0.7777,0.7778,0.7776,0.7773,0.7807,0.7807,0.7807,0,0,0.7621,0.7633,0.7632,0.7643,0.7661,0.7675,0.7675,0.7695,0.7704,0.7708,0.7727,0.7732,0.7743,0.7754,0.776,0.7743,0.7756,0.7744,0.7729,0.773,0.7727,0.7725,0.7721,0.7718,0.7743,0.7743,0.7743,0,0.7599,0.7609,0.763,0.7634,0.7641,0.7665,0.7665,0.7674,0.7692,0.7697,0.7705,0.7722,0.7733,0.7736,0.7733,0.7737,0.7738,0.7742,0.7726,0.7724,0.7723,0.7718,0.7716,0.7742,0.7742,0.7742,0.7742,0,0.7582,0.7588,0.7586,0.7605,0.7612,0.7614,0.7635,0.764,0.7653,0.7667,0.7672,0.7687,0.7699,0.7701,0.7713,0.7707,0.7711,0.7722,0.7736,0.7718,0.7715,0.7713,0.774,0.774,0.7741,0.7741,0,0,0.7536,0.7569,0.7568,0.7578,0.76,0.7605,0.7608,0.7622,0.7626,0.7638,0.7642,0.7653,0.7664,0.7672,0.7686,0.7686,0.7674,0.7698,0.7698,0.7694,0.767,0.7662,0.766,0.7683,0.7683,0.7682,0.7669,0,0.7515,0.7524,0.7545,0.7547,0.7554,0.7578,0.7581,0.7595,0.7609,0.7617,0.7631,0.7639,0.7653,0.7658,0.7659,0.7675,0.7669,0.7676,0.7687,0.7687,0.7684,0.7658,0.7649,0.7636,0.7668,0.7668,0.7667,0,0.7492,0.7505,0.7509,0.7533,0.7537,0.7539,0.7555,0.7562,0.7579,0.7589,0.7599,0.7615,0.7621,0.7633,0.7642,0.7646,0.7653,0.7661,0.7661,0.7663,0.7677,0.766,0.7632,0.763,0.7665,0.7665,0.7665,0,0.746,0.7478,0.7484,0.7491,0.7519,0.7521,0.7532,0.755,0.7558,0.7571,0.7577,0.7589,0.7597,0.7607,0.7626,0.7633,0.7634,0.7647,0.7642,0.7642,0.7641,0.7641,0.7614,0.7644,0.7644,0.7644,0.7644,0,0.7435,0.7437,0.747,0.7473,0.7476,0.75,0.7502,0.7516,0.7532,0.7539,0.756,0.7565,0.7591,0.7599,0.7614,0.7621,0.7623,0.7632,0.7636,0.763,0.7629,0.7635,0.7636,0.7643,0.7643,0.7644,0.7644,0,0.7399,0.7421,0.7429,0.7456,0.7463,0.7464,0.7487,0.7492,0.7508,0.7516,0.7519,0.7544,0.7555,0.7576,0.7593,0.7603,0.7607,0.7613,0.7601,0.7604,0.7599,0.7599,0.7575,0.7573,0.7603,0.7602,0.7602,0,0.7382,0.7385,0.7413,0.742,0.7431,0.7441,0.745,0.7474,0.7482,0.7503,0.7505,0.7519,0.7532,0.7549,0.7568,0.7582,0.759,0.758,0.7592,0.7587,0.7591,0.7591,0.7592,0.7578,0.7577,0.7577,0.7577,0,0.7351,0.7362,0.7374,0.7391,0.7402,0.7416,0.743,0.7435,0.7462,0.7471,0.7484,0.7494,0.7513,0.7526,0.7543,0.7555,0.7571,0.7573,0.7573,0.7567,0.7561,0.7566,0.7595,0.7573,0.7574,0.7574,0.7574,0.7574,0.7325,0.7329,0.735,0.7364,0.7378,0.7392,0.7399,0.7416,0.7428,0.7447,0.746,0.7473,0.7492,0.7517,0.7528,0.7538,0.7545,0.7545,0.7545,0.7544,0.7543,0.7559,0.7541,0.7542,0.7542,0.7542,0.7542,0,0.7295,0.7311,0.7323,0.7345,0.7356,0.7371,0.7389,0.7398,0.7409,0.7426,0.7439,0.7455,0.7469,0.7491,0.7507,0.7511,0.7519,0.7514,0.7514,0.7517,0.7535,0.7534,0.7508,0.7508,0.7508,0.7508,0.7508,0.7508,0.7281,0.729,0.7304,0.7321,0.7336,0.735,0.7359,0.7373,0.7387,0.7405,0.7418,0.7432,0.7451,0.7469,0.7483,0.7489,0.7495,0.7488,0.7497,0.7513,0.7516,0.7519,0.7518,0.7489,0.7489,0.7478,0.7478,0.7478]}]]